Time,TemperatureF,DewpointF,PressureIn,WindDirection,WindDirectionDegrees,WindSpeedMPH,WindSpeedGustMPH,Humidity,HourlyPrecipIn,Conditions,Clouds,dailyrainin,SoftwareType,DateUTC
2013-01-18 00:10:00,19.2,-8.5,30.30,NNW,338,4.0,10.0,28,0.00,,,0.04,meteohub,2013-01-18 05:10:00,
2013-01-18 00:11:00,19.2,-8.5,30.30,NNW,338,6.0,10.0,28,0.00,,,0.04,meteohub,2013-01-18 05:11:00,
2013-01-18 00:12:00,19.2,-8.5,30.30,NNW,338,6.0,10.0,28,0.00,,,0.04,meteohub,2013-01-18 05:12:00,
2013-01-18 00:13:00,19.2,-8.5,30.30,NNW,338,6.0,10.0,28,0.00,,,0.04,meteohub,2013-01-18 05:13:00,
2013-01-18 00:19:00,19.2,-8.5,30.30,NNW,338,11.0,11.0,28,0.00,,,0.00,meteohub,2013-01-18 05:19:00,
2013-01-18 00:24:00,19.0,-7.2,30.32,NNW,338,6.0,11.0,30,0.00,,,0.00,meteohub,2013-01-18 05:24:00,
2013-01-18 00:29:00,19.0,-7.2,30.32,NNW,338,6.0,11.0,30,0.00,,,0.00,meteohub,2013-01-18 05:29:00,
2013-01-18 00:35:00,19.0,-7.2,30.32,NNW,338,8.0,11.0,30,0.00,,,0.00,meteohub,2013-01-18 05:35:00,
2013-01-18 00:40:00,18.9,-5.4,30.32,NNW,338,10.0,11.0,33,0.00,,,0.00,meteohub,2013-01-18 05:40:00,
2013-01-18 00:45:00,18.9,-5.4,30.32,NNW,338,6.0,11.0,33,0.00,,,0.00,meteohub,2013-01-18 05:45:00,
2013-01-18 00:51:00,18.9,-5.4,30.32,NNW,338,8.0,10.0,33,0.00,,,0.00,meteohub,2013-01-18 05:51:00,
2013-01-18 00:56:00,18.9,-5.4,30.32,NNW,338,8.0,10.0,33,0.00,,,0.00,meteohub,2013-01-18 05:56:00,
2013-01-18 01:01:00,18.9,-5.4,30.32,NNW,338,4.0,10.0,33,0.00,,,0.00,meteohub,2013-01-18 06:01:00,
2013-01-18 01:07:00,19.0,-4.7,30.32,NNE,22,4.0,10.0,34,0.00,,,0.00,meteohub,2013-01-18 06:07:00,
2013-01-18 01:12:00,19.0,-4.7,30.32,NNE,22,4.0,9.0,34,0.00,,,0.00,meteohub,2013-01-18 06:12:00,
2013-01-18 01:17:00,19.0,-4.7,30.32,NNE,22,4.0,9.0,34,0.00,,,0.00,meteohub,2013-01-18 06:17:00,
2013-01-18 01:22:00,19.0,-4.7,30.32,NNW,338,3.0,9.0,34,0.00,,,0.00,meteohub,2013-01-18 06:22:00,
2013-01-18 01:27:00,18.9,-4.9,30.32,NE,45,3.0,9.0,34,0.00,,,0.00,meteohub,2013-01-18 06:27:00,
2013-01-18 01:32:00,18.9,-4.9,30.32,North,0,4.0,5.0,34,0.00,,,0.00,meteohub,2013-01-18 06:32:00,
2013-01-18 01:37:00,18.9,-4.9,30.32,NNW,338,4.0,5.0,34,0.00,,,0.00,meteohub,2013-01-18 06:37:00,
2013-01-18 01:42:00,18.7,-5.1,30.32,NNW,338,3.0,5.0,34,0.00,,,0.00,meteohub,2013-01-18 06:42:00,
2013-01-18 01:48:00,18.7,-5.1,30.32,NNW,338,4.0,6.0,34,0.00,,,0.00,meteohub,2013-01-18 06:48:00,
2013-01-18 01:53:00,18.5,-5.1,30.35,NNW,338,3.0,6.0,34,0.00,,,0.00,meteohub,2013-01-18 06:53:00,
2013-01-18 01:58:00,18.5,-5.1,30.35,NNW,338,2.0,6.0,34,0.00,,,0.00,meteohub,2013-01-18 06:58:00,
2013-01-18 02:04:00,18.5,-5.1,30.35,NNE,22,0.0,6.0,34,0.00,,,0.00,meteohub,2013-01-18 07:04:00,
2013-01-18 02:09:00,18.3,-5.3,30.35,WNW,292,3.0,5.0,34,0.00,,,0.00,meteohub,2013-01-18 07:09:00,
2013-01-18 02:14:00,18.3,-5.3,30.35,NNW,338,2.0,5.0,34,0.00,,,0.00,meteohub,2013-01-18 07:14:00,
2013-01-18 02:20:00,18.3,-4.2,30.35,WNW,292,4.0,5.0,36,0.00,,,0.00,meteohub,2013-01-18 07:20:00,
2013-01-18 02:25:00,18.3,-3.6,30.35,WNW,292,3.0,5.0,37,0.00,,,0.00,meteohub,2013-01-18 07:25:00,
2013-01-18 02:30:00,18.1,-3.6,30.35,WSW,248,2.0,5.0,37,0.00,,,0.00,meteohub,2013-01-18 07:30:00,
2013-01-18 02:36:00,18.0,-3.8,30.35,WNW,292,2.0,5.0,37,0.00,,,0.00,meteohub,2013-01-18 07:36:00,
2013-01-18 02:41:00,17.8,-4.0,30.38,NW,315,0.0,4.0,37,0.00,,,0.00,meteohub,2013-01-18 07:41:00,
2013-01-18 02:46:00,17.8,-2.4,30.38,WNW,292,1.0,4.0,40,0.00,,,0.00,meteohub,2013-01-18 07:46:00,
2013-01-18 02:52:00,17.8,-2.4,30.38,NNW,338,3.0,4.0,40,0.00,,,0.00,meteohub,2013-01-18 07:52:00,
2013-01-18 02:57:00,17.6,-3.1,30.38,NW,315,2.0,4.0,39,0.00,,,0.00,meteohub,2013-01-18 07:57:00,
2013-01-18 03:02:00,17.8,-2.4,30.38,WNW,292,3.0,4.0,40,0.00,,,0.00,meteohub,2013-01-18 08:02:00,
2013-01-18 03:07:00,17.6,-1.1,30.38,West,270,3.0,4.0,43,0.00,,,0.00,meteohub,2013-01-18 08:07:00,
2013-01-18 03:12:00,17.4,-0.8,30.38,WNW,292,2.0,4.0,44,0.00,,,0.00,meteohub,2013-01-18 08:12:00,
2013-01-18 03:18:00,17.1,-1.1,30.38,WNW,292,2.0,3.0,44,0.00,,,0.00,meteohub,2013-01-18 08:18:00,
2013-01-18 03:23:00,17.1,-1.1,30.38,West,270,2.0,3.0,44,0.00,,,0.00,meteohub,2013-01-18 08:23:00,
2013-01-18 03:28:00,16.9,-1.3,30.38,WSW,248,0.0,3.0,44,0.00,,,0.00,meteohub,2013-01-18 08:28:00,
2013-01-18 03:34:00,16.7,-1.5,30.38,WSW,248,3.0,3.0,44,0.00,,,0.00,meteohub,2013-01-18 08:34:00,
2013-01-18 03:39:00,16.7,-0.9,30.38,WSW,248,3.0,3.0,45,0.00,,,0.00,meteohub,2013-01-18 08:39:00,
2013-01-18 03:44:00,16.3,-1.3,30.38,WNW,292,3.0,3.0,45,0.00,,,0.00,meteohub,2013-01-18 08:44:00,
2013-01-18 03:50:00,16.2,-1.5,30.38,WNW,292,1.0,4.0,45,0.00,,,0.00,meteohub,2013-01-18 08:50:00,
2013-01-18 03:55:00,16.2,-1.5,30.38,WNW,292,3.0,4.0,45,0.00,,,0.00,meteohub,2013-01-18 08:55:00,
2013-01-18 04:00:00,16.0,-1.7,30.38,West,270,2.0,4.0,45,0.00,,,0.00,meteohub,2013-01-18 09:00:00,
2013-01-18 04:05:00,16.0,-1.1,30.38,WSW,248,3.0,-999.0,46,0.00,,,0.00,meteohub,2013-01-18 09:05:00,
2013-01-18 04:11:00,15.8,-1.3,30.38,WSW,248,2.0,3.0,46,0.00,,,0.00,meteohub,2013-01-18 09:11:00,
2013-01-18 04:16:00,16.0,-0.6,30.38,WNW,292,3.0,3.0,47,0.00,,,0.00,meteohub,2013-01-18 09:16:00,
2013-01-18 04:21:00,15.8,-0.8,30.38,West,270,2.0,4.0,47,0.00,,,0.00,meteohub,2013-01-18 09:21:00,
2013-01-18 04:27:00,15.8,-0.8,30.38,West,270,3.0,4.0,47,0.00,,,0.00,meteohub,2013-01-18 09:27:00,
2013-01-18 04:32:00,15.8,-0.8,30.38,West,270,4.0,4.0,47,0.00,,,0.00,meteohub,2013-01-18 09:32:00,
2013-01-18 04:37:00,15.8,-0.4,30.38,WSW,248,3.0,4.0,48,0.00,,,0.00,meteohub,2013-01-18 09:37:00,
2013-01-18 04:42:00,15.6,-0.6,30.38,WSW,248,2.0,4.0,48,0.00,,,0.00,meteohub,2013-01-18 09:42:00,
2013-01-18 04:47:00,15.6,-0.6,30.38,West,270,2.0,4.0,48,0.00,,,0.00,meteohub,2013-01-18 09:47:00,
2013-01-18 04:53:00,15.6,0.0,30.35,West,270,2.0,3.0,49,0.00,,,0.00,meteohub,2013-01-18 09:53:00,
2013-01-18 04:58:00,15.6,0.0,30.35,WNW,292,2.0,3.0,49,0.00,,,0.00,meteohub,2013-01-18 09:58:00,
2013-01-18 05:03:00,15.6,0.0,30.35,WSW,248,2.0,3.0,49,0.00,,,0.04,meteohub,2013-01-18 10:03:00,
2013-01-18 05:09:00,15.8,0.5,30.38,West,270,3.0,3.0,50,0.00,,,0.00,meteohub,2013-01-18 10:09:00,
2013-01-18 05:14:00,15.8,0.9,30.38,West,270,3.0,3.0,51,0.00,,,0.00,meteohub,2013-01-18 10:14:00,
2013-01-18 05:19:00,16.0,1.0,30.38,WSW,248,4.0,4.0,51,0.00,,,0.00,meteohub,2013-01-18 10:19:00,
2013-01-18 05:25:00,16.0,0.7,30.35,West,270,2.0,3.0,50,0.00,,,0.00,meteohub,2013-01-18 10:25:00,
2013-01-18 05:30:00,16.0,0.7,30.35,West,270,3.0,3.0,50,0.00,,,0.00,meteohub,2013-01-18 10:30:00,
2013-01-18 05:35:00,16.0,0.7,30.35,WNW,292,3.0,3.0,50,0.00,,,0.00,meteohub,2013-01-18 10:35:00,
2013-01-18 05:41:00,16.2,1.2,30.38,WNW,292,4.0,4.0,51,0.00,,,0.00,meteohub,2013-01-18 10:41:00,
2013-01-18 05:46:00,16.3,1.4,30.38,West,270,2.0,3.0,51,0.00,,,0.00,meteohub,2013-01-18 10:46:00,
2013-01-18 05:51:00,16.2,0.9,30.38,WSW,248,0.0,3.0,50,0.00,,,0.00,meteohub,2013-01-18 10:51:00,
2013-01-18 05:57:00,16.3,1.0,30.38,WSW,248,2.0,3.0,50,0.00,,,0.00,meteohub,2013-01-18 10:57:00,
2013-01-18 06:02:00,16.5,1.6,30.38,WSW,248,2.0,4.0,51,0.00,,,0.00,meteohub,2013-01-18 11:02:00,
2013-01-18 06:07:00,16.5,1.6,30.41,WNW,292,2.0,4.0,51,0.00,,,0.00,meteohub,2013-01-18 11:07:00,
2013-01-18 06:12:00,16.7,1.4,30.41,West,270,3.0,4.0,50,0.00,,,0.00,meteohub,2013-01-18 11:12:00,
2013-01-18 06:17:00,16.7,1.4,30.41,WSW,248,2.0,4.0,50,0.00,,,0.00,meteohub,2013-01-18 11:17:00,
2013-01-18 06:22:00,16.7,0.9,30.38,WSW,248,3.0,4.0,49,0.00,,,0.00,meteohub,2013-01-18 11:22:00,
2013-01-18 06:27:00,16.7,0.9,30.38,WSW,248,4.0,4.0,49,0.00,,,0.00,meteohub,2013-01-18 11:27:00,
2013-01-18 06:32:00,16.7,0.5,30.38,WNW,292,2.0,3.0,48,0.00,,,0.00,meteohub,2013-01-18 11:32:00,
2013-01-18 06:37:00,16.7,0.0,30.38,WSW,248,3.0,3.0,47,0.00,,,0.00,meteohub,2013-01-18 11:37:00,
2013-01-18 06:42:00,16.7,0.0,30.38,WSW,248,3.0,3.0,47,0.00,,,0.00,meteohub,2013-01-18 11:42:00,
2013-01-18 06:47:00,16.7,-0.4,30.38,WSW,248,2.0,3.0,46,0.00,,,0.00,meteohub,2013-01-18 11:47:00,
2013-01-18 06:52:00,16.9,-0.2,30.38,WSW,248,3.0,3.0,46,0.00,,,0.00,meteohub,2013-01-18 11:52:00,
2013-01-18 06:57:00,16.7,-0.9,30.41,WNW,292,3.0,4.0,45,0.00,,,0.00,meteohub,2013-01-18 11:57:00,
2013-01-18 07:02:00,16.7,-0.9,30.41,WSW,248,2.0,4.0,45,0.00,,,0.00,meteohub,2013-01-18 12:02:00,
2013-01-18 07:07:00,16.7,-0.9,30.41,WSW,248,2.0,4.0,45,0.00,,,0.00,meteohub,2013-01-18 12:07:00,
2013-01-18 07:12:00,16.7,-0.9,30.41,WSW,248,0.0,4.0,45,0.00,,,0.00,meteohub,2013-01-18 12:12:00,
2013-01-18 07:17:00,16.5,-1.5,30.41,South,180,0.0,4.0,44,0.00,,,0.00,meteohub,2013-01-18 12:17:00,
2013-01-18 07:22:00,16.2,-1.8,30.41,South,180,0.0,4.0,44,0.00,,,0.00,meteohub,2013-01-18 12:22:00,
2013-01-18 07:27:00,16.0,-2.0,30.41,South,180,0.0,2.0,44,0.00,,,0.00,meteohub,2013-01-18 12:27:00,
2013-01-18 07:32:00,15.8,-2.2,30.41,South,180,0.0,2.0,44,0.00,,,0.00,meteohub,2013-01-18 12:32:00,
2013-01-18 07:38:00,15.4,-2.6,30.41,South,180,0.0,2.0,44,0.00,,,0.00,meteohub,2013-01-18 12:38:00,
2013-01-18 07:43:00,15.4,-2.0,30.41,South,180,0.0,2.0,45,0.00,,,0.00,meteohub,2013-01-18 12:43:00,
2013-01-18 07:48:00,15.3,-2.2,30.41,South,180,0.0,2.0,45,0.00,,,0.00,meteohub,2013-01-18 12:48:00,
2013-01-18 07:54:00,15.3,-2.2,30.41,South,180,0.0,0.0,45,0.00,,,0.00,meteohub,2013-01-18 12:54:00,
2013-01-18 07:59:00,15.1,-2.4,30.41,South,180,0.0,0.0,45,0.00,,,0.00,meteohub,2013-01-18 12:59:00,
2013-01-18 08:04:00,14.9,-2.6,30.41,South,180,0.0,0.0,45,0.00,,,0.00,meteohub,2013-01-18 13:04:00,
2013-01-18 08:10:00,14.9,-2.2,30.38,South,180,0.0,0.0,46,0.00,,,0.00,meteohub,2013-01-18 13:10:00,
2013-01-18 08:15:00,14.7,-2.2,30.38,South,180,0.0,0.0,46,0.00,,,0.00,meteohub,2013-01-18 13:15:00,
2013-01-18 08:20:00,14.7,-2.2,30.38,South,180,0.0,0.0,46,0.00,,,0.00,meteohub,2013-01-18 13:20:00,
2013-01-18 08:26:00,14.9,-2.2,30.38,South,180,0.0,0.0,46,0.00,,,0.00,meteohub,2013-01-18 13:26:00,
2013-01-18 08:31:00,15.3,-1.3,30.38,South,180,0.0,0.0,47,0.00,,,0.00,meteohub,2013-01-18 13:31:00,
2013-01-18 08:36:00,15.6,-0.6,30.38,South,180,1.0,0.0,48,0.00,,,0.00,meteohub,2013-01-18 13:36:00,
2013-01-18 08:42:00,16.0,-0.2,30.38,South,180,0.0,2.0,48,0.00,,,0.00,meteohub,2013-01-18 13:42:00,
2013-01-18 08:47:00,16.2,0.3,30.38,South,180,0.0,2.0,49,0.00,,,0.00,meteohub,2013-01-18 13:47:00,
2013-01-18 08:52:00,16.5,0.7,30.41,SSE,158,0.0,2.0,49,0.00,,,0.00,meteohub,2013-01-18 13:52:00,
2013-01-18 08:57:00,16.9,0.7,30.41,South,180,0.0,2.0,48,0.00,,,0.00,meteohub,2013-01-18 13:57:00,
2013-01-18 09:03:00,17.2,0.9,30.41,SW,225,0.0,2.0,48,0.00,,,0.00,meteohub,2013-01-18 14:03:00,
2013-01-18 09:08:00,17.6,0.9,30.41,SSE,158,2.0,2.0,47,0.00,,,0.00,meteohub,2013-01-18 14:08:00,
2013-01-18 09:13:00,18.1,0.3,30.41,South,180,0.0,2.0,45,0.00,,,0.00,meteohub,2013-01-18 14:13:00,
2013-01-18 09:19:00,18.7,0.5,30.41,SSE,158,0.0,2.0,44,0.00,,,0.00,meteohub,2013-01-18 14:19:00,
2013-01-18 09:24:00,19.0,0.7,30.38,SE,135,2.0,2.0,44,0.00,,,0.00,meteohub,2013-01-18 14:24:00,
2013-01-18 09:29:00,19.4,0.5,30.38,SSE,158,1.0,2.0,43,0.00,,,0.00,meteohub,2013-01-18 14:29:00,
2013-01-18 09:35:00,19.6,-1.3,30.38,SSE,158,0.0,2.0,39,0.00,,,0.00,meteohub,2013-01-18 14:35:00,
2013-01-18 09:40:00,19.8,-1.7,30.38,SSE,158,1.0,2.0,38,0.00,,,0.00,meteohub,2013-01-18 14:40:00,
2013-01-18 09:46:00,19.9,-2.7,30.38,SSE,158,2.0,2.0,36,0.00,,,0.00,meteohub,2013-01-18 14:46:00,
2013-01-18 09:51:00,20.1,-3.1,30.38,SW,225,0.0,3.0,35,0.00,,,0.00,meteohub,2013-01-18 14:51:00,
2013-01-18 09:56:00,20.3,-2.9,30.38,SSW,202,2.0,3.0,35,0.00,,,0.00,meteohub,2013-01-18 14:56:00,
2013-01-18 10:01:00,20.8,-2.4,30.38,SSW,202,2.0,3.0,35,0.00,,,0.00,meteohub,2013-01-18 15:01:00,
2013-01-18 10:07:00,21.2,-2.7,30.38,South,180,0.0,3.0,34,0.00,,,0.00,meteohub,2013-01-18 15:07:00,
2013-01-18 10:12:00,21.4,-3.3,30.38,SE,135,2.0,3.0,33,0.00,,,0.00,meteohub,2013-01-18 15:12:00,
2013-01-18 10:17:00,21.7,-2.9,30.38,SSE,158,2.0,5.0,33,0.00,,,0.00,meteohub,2013-01-18 15:17:00,
2013-01-18 10:22:00,21.7,-2.9,30.38,SE,135,1.0,5.0,33,0.00,,,0.00,meteohub,2013-01-18 15:22:00,
2013-01-18 10:27:00,22.1,-2.6,30.38,SSE,158,2.0,5.0,33,0.00,,,0.00,meteohub,2013-01-18 15:27:00,
2013-01-18 10:32:00,22.8,-2.0,30.38,South,180,2.0,5.0,33,0.00,,,0.00,meteohub,2013-01-18 15:32:00,
2013-01-18 10:38:00,23.0,-1.8,30.38,WNW,292,1.0,5.0,33,0.00,,,0.00,meteohub,2013-01-18 15:38:00,
2013-01-18 10:43:00,23.5,-1.3,30.38,South,180,1.0,5.0,33,0.00,,,0.00,meteohub,2013-01-18 15:43:00,
2013-01-18 10:48:00,23.7,-1.1,30.38,South,180,2.0,5.0,33,0.00,,,0.00,meteohub,2013-01-18 15:48:00,
2013-01-18 10:54:00,24.1,-0.8,30.38,SSW,202,0.0,5.0,33,0.00,,,0.00,meteohub,2013-01-18 15:54:00,
2013-01-18 10:59:00,24.3,-0.6,30.38,WSW,248,3.0,5.0,33,0.00,,,0.00,meteohub,2013-01-18 15:59:00,
2013-01-18 11:04:00,24.4,-0.6,30.38,SSE,158,4.0,5.0,33,0.00,,,0.00,meteohub,2013-01-18 16:04:00,
2013-01-18 11:10:00,24.4,-0.6,30.38,SSE,158,3.0,5.0,33,0.00,,,0.00,meteohub,2013-01-18 16:10:00,
2013-01-18 11:15:00,24.4,-0.6,30.38,SW,225,4.0,5.0,33,0.00,,,0.00,meteohub,2013-01-18 16:15:00,
2013-01-18 11:21:00,24.4,-0.6,30.38,South,180,2.0,5.0,33,0.00,,,0.00,meteohub,2013-01-18 16:21:00,
2013-01-18 11:26:00,24.4,-0.6,30.38,South,180,2.0,4.0,33,0.00,,,0.00,meteohub,2013-01-18 16:26:00,
2013-01-18 11:31:00,24.6,0.3,30.38,SSW,202,4.0,4.0,34,0.00,,,0.00,meteohub,2013-01-18 16:31:00,
2013-01-18 11:37:00,24.8,0.5,30.35,ESE,112,3.0,4.0,34,0.00,,,0.00,meteohub,2013-01-18 16:37:00,
2013-01-18 11:42:00,24.8,0.5,30.35,South,180,2.0,4.0,34,0.00,,,0.00,meteohub,2013-01-18 16:42:00,
2013-01-18 11:47:00,24.8,-0.2,30.35,SSW,202,2.0,4.0,33,0.00,,,0.00,meteohub,2013-01-18 16:47:00,
2013-01-18 11:52:00,24.8,0.5,30.35,WSW,248,2.0,7.0,34,0.00,,,0.00,meteohub,2013-01-18 16:52:00,
2013-01-18 11:57:00,25.2,0.7,30.35,WSW,248,3.0,7.0,34,0.00,,,0.00,meteohub,2013-01-18 16:57:00,
2013-01-18 12:02:00,25.3,0.9,30.35,South,180,5.0,7.0,34,0.00,,,0.00,meteohub,2013-01-18 17:02:00,
2013-01-18 12:07:00,25.5,0.5,30.32,SW,225,4.0,7.0,33,0.00,,,0.00,meteohub,2013-01-18 17:07:00,
2013-01-18 12:12:00,25.5,1.0,30.32,WNW,292,2.0,7.0,34,0.00,,,0.00,meteohub,2013-01-18 17:12:00,
2013-01-18 12:17:00,25.5,1.0,30.32,SSW,202,2.0,7.0,34,0.00,,,0.00,meteohub,2013-01-18 17:17:00,
2013-01-18 12:22:00,25.5,1.8,30.32,WSW,248,3.0,7.0,35,0.00,,,0.00,meteohub,2013-01-18 17:22:00,
2013-01-18 12:27:00,25.7,1.9,30.32,South,180,2.0,7.0,35,0.00,,,0.00,meteohub,2013-01-18 17:27:00,
2013-01-18 12:33:00,26.1,2.1,30.32,South,180,2.0,7.0,35,0.00,,,0.00,meteohub,2013-01-18 17:33:00,
2013-01-18 12:38:00,26.2,2.3,30.32,South,180,0.0,7.0,35,0.00,,,0.00,meteohub,2013-01-18 17:38:00,
2013-01-18 12:43:00,26.6,2.7,30.32,SSW,202,4.0,6.0,35,0.00,,,0.00,meteohub,2013-01-18 17:43:00,
2013-01-18 12:49:00,27.0,3.0,30.32,SW,225,5.0,6.0,35,0.00,,,0.00,meteohub,2013-01-18 17:49:00,
2013-01-18 12:54:00,27.1,2.5,30.30,WNW,292,3.0,6.0,34,0.00,,,0.00,meteohub,2013-01-18 17:54:00,
2013-01-18 13:00:00,27.5,2.1,30.30,ESE,112,2.0,6.0,33,0.00,,,0.00,meteohub,2013-01-18 18:00:00,
2013-01-18 13:05:00,27.9,2.5,30.30,WSW,248,2.0,6.0,33,0.00,,,0.00,meteohub,2013-01-18 18:05:00,
2013-01-18 13:10:00,28.4,2.3,30.27,South,180,6.0,6.0,32,0.00,,,0.00,meteohub,2013-01-18 18:10:00,
2013-01-18 13:16:00,28.8,1.9,30.27,WSW,248,5.0,6.0,31,0.00,,,0.00,meteohub,2013-01-18 18:16:00,
2013-01-18 13:21:00,29.1,2.3,30.27,SSW,202,4.0,6.0,31,0.00,,,0.00,meteohub,2013-01-18 18:21:00,
2013-01-18 13:27:00,29.7,2.1,30.27,SE,135,3.0,6.0,30,0.00,,,0.00,meteohub,2013-01-18 18:27:00,
2013-01-18 13:32:00,30.0,0.9,30.27,SSW,202,4.0,6.0,28,0.00,,,0.00,meteohub,2013-01-18 18:32:00,
2013-01-18 13:37:00,30.4,-1.1,30.24,SW,225,5.0,6.0,25,0.00,,,0.00,meteohub,2013-01-18 18:37:00,
2013-01-18 13:42:00,30.7,1.6,30.24,South,180,2.0,8.0,28,0.00,,,0.00,meteohub,2013-01-18 18:42:00,
2013-01-18 13:47:00,31.3,-0.4,30.24,South,180,8.0,8.0,25,0.00,,,0.00,meteohub,2013-01-18 18:47:00,
2013-01-18 13:52:00,32.0,0.3,30.21,ESE,112,6.0,8.0,25,0.00,,,0.00,meteohub,2013-01-18 18:52:00,
2013-01-18 13:57:00,32.2,-1.3,30.21,SSE,158,3.0,8.0,23,0.00,,,0.00,meteohub,2013-01-18 18:57:00,
2013-01-18 14:03:00,32.2,-1.3,30.21,WSW,248,3.0,8.0,23,0.00,,,0.00,meteohub,2013-01-18 19:03:00,
2013-01-18 14:08:00,32.7,-0.9,30.21,WSW,248,6.0,8.0,23,0.00,,,0.00,meteohub,2013-01-18 19:08:00,
2013-01-18 14:13:00,33.1,-0.6,30.21,SSE,158,1.0,8.0,23,0.00,,,0.00,meteohub,2013-01-18 19:13:00,
2013-01-18 14:19:00,33.1,-0.6,30.21,SSE,158,3.0,8.0,23,0.00,,,0.00,meteohub,2013-01-18 19:19:00,
2013-01-18 14:24:00,33.1,-0.6,30.21,WSW,248,6.0,8.0,23,0.00,,,0.00,meteohub,2013-01-18 19:24:00,
2013-01-18 14:30:00,32.7,-0.9,30.21,SE,135,3.0,7.0,23,0.00,,,0.00,meteohub,2013-01-18 19:30:00,
2013-01-18 14:35:00,32.7,-0.9,30.21,WSW,248,2.0,7.0,23,0.00,,,0.00,meteohub,2013-01-18 19:35:00,
2013-01-18 14:40:00,32.4,-1.1,30.21,WSW,248,2.0,7.0,23,0.00,,,0.00,meteohub,2013-01-18 19:40:00,
2013-01-18 14:45:00,32.2,-1.3,30.21,SSE,158,3.0,7.0,23,0.00,,,0.00,meteohub,2013-01-18 19:45:00,
2013-01-18 14:51:00,32.4,-1.1,30.21,WNW,292,4.0,10.0,23,0.00,,,0.00,meteohub,2013-01-18 19:51:00,
2013-01-18 14:56:00,32.5,-1.1,30.18,SSE,158,4.0,10.0,23,0.00,,,0.00,meteohub,2013-01-18 19:56:00,
2013-01-18 15:01:00,32.9,-0.8,30.18,WSW,248,4.0,10.0,23,0.00,,,0.00,meteohub,2013-01-18 20:01:00,
2013-01-18 15:07:00,32.9,-0.8,30.12,SSW,202,4.0,10.0,23,0.00,,,0.00,meteohub,2013-01-18 20:07:00,
2013-01-18 15:12:00,33.1,-0.6,30.12,South,180,4.0,6.0,23,0.00,,,0.00,meteohub,2013-01-18 20:12:00,
2013-01-18 15:17:00,33.3,-0.4,30.12,WSW,248,4.0,6.0,23,0.00,,,0.00,meteohub,2013-01-18 20:17:00,
2013-01-18 15:22:00,33.6,0.0,30.12,SSE,158,6.0,6.0,23,0.00,,,0.00,meteohub,2013-01-18 20:22:00,
2013-01-18 15:27:00,33.6,0.0,30.12,NNW,338,4.0,6.0,23,0.00,,,0.00,meteohub,2013-01-18 20:27:00,
2013-01-18 15:32:00,33.8,-0.9,30.12,SW,225,5.0,6.0,22,0.00,,,0.00,meteohub,2013-01-18 20:32:00,
2013-01-18 15:37:00,34.0,-0.8,30.12,SSE,158,6.0,9.0,22,0.00,,,0.00,meteohub,2013-01-18 20:37:00,
2013-01-18 15:42:00,34.0,-0.8,30.12,South,180,4.0,9.0,22,0.00,,,0.00,meteohub,2013-01-18 20:42:00,
2013-01-18 15:47:00,34.0,-0.8,30.12,WSW,248,4.0,9.0,22,0.00,,,0.00,meteohub,2013-01-18 20:47:00,
2013-01-18 15:52:00,34.2,-0.6,30.15,East,90,4.0,9.0,22,0.00,,,0.00,meteohub,2013-01-18 20:52:00,
2013-01-18 15:57:00,34.0,-0.8,30.15,SSW,202,2.0,10.0,22,0.00,,,0.00,meteohub,2013-01-18 20:57:00,
2013-01-18 16:02:00,34.0,-0.8,30.15,SSE,158,8.0,10.0,22,0.00,,,0.00,meteohub,2013-01-18 21:02:00,
2013-01-18 16:07:00,34.0,-0.8,30.15,SW,225,4.0,10.0,22,0.00,,,0.00,meteohub,2013-01-18 21:07:00,
2013-01-18 16:12:00,34.2,-0.6,30.15,SSW,202,2.0,10.0,22,0.00,,,0.00,meteohub,2013-01-18 21:12:00,
2013-01-18 16:17:00,33.6,0.0,30.15,WSW,248,3.0,10.0,23,0.00,,,0.00,meteohub,2013-01-18 21:17:00,
2013-01-18 16:22:00,33.3,1.4,30.12,SSW,202,6.0,8.0,25,0.00,,,0.00,meteohub,2013-01-18 21:22:00,
2013-01-18 16:27:00,33.3,1.4,30.12,SSE,158,4.0,8.0,25,0.00,,,0.00,meteohub,2013-01-18 21:27:00,
2013-01-18 16:32:00,33.1,1.2,30.12,WSW,248,3.0,8.0,25,0.00,,,0.00,meteohub,2013-01-18 21:32:00,
2013-01-18 16:50:00,33.3,3.7,30.09,SSW,202,3.0,10.0,28,0.00,,,0.00,meteohub,2013-01-18 21:50:00,
2013-01-18 16:56:00,33.1,3.6,30.09,WNW,292,4.0,10.0,28,0.00,,,0.00,meteohub,2013-01-18 21:56:00,
2013-01-18 17:01:00,33.1,5.2,30.09,SSE,158,6.0,10.0,30,0.00,,,0.00,meteohub,2013-01-18 22:01:00,
2013-01-18 17:07:00,32.9,5.0,30.09,SSW,202,6.0,10.0,30,0.00,,,0.00,meteohub,2013-01-18 22:07:00,
2013-01-18 17:12:00,33.1,5.2,30.09,NNE,22,3.0,10.0,30,0.00,,,0.00,meteohub,2013-01-18 22:12:00,
2013-01-18 17:17:00,32.9,5.0,30.09,SE,135,3.0,10.0,30,0.00,,,0.00,meteohub,2013-01-18 22:17:00,
2013-01-18 17:22:00,32.9,5.0,30.09,WSW,248,4.0,10.0,30,0.00,,,0.00,meteohub,2013-01-18 22:22:00,
2013-01-18 17:28:00,32.9,5.0,30.09,SSE,158,3.0,10.0,30,0.00,,,0.00,meteohub,2013-01-18 22:28:00,
2013-01-18 17:33:00,32.9,5.0,30.09,WNW,292,3.0,10.0,30,0.00,,,0.00,meteohub,2013-01-18 22:33:00,
2013-01-18 17:38:00,32.9,5.0,30.12,SSE,158,4.0,10.0,30,0.00,,,0.00,meteohub,2013-01-18 22:38:00,
2013-01-18 17:44:00,32.9,5.0,30.12,SSW,202,6.0,10.0,30,0.00,,,0.00,meteohub,2013-01-18 22:44:00,
2013-01-18 17:49:00,32.9,5.7,30.12,WSW,248,6.0,10.0,31,0.00,,,0.00,meteohub,2013-01-18 22:49:00,
2013-01-18 17:54:00,33.1,5.9,30.09,ESE,112,3.0,10.0,31,0.00,,,0.00,meteohub,2013-01-18 22:54:00,
2013-01-18 18:00:00,33.1,5.9,30.09,WSW,248,3.0,11.0,31,0.00,,,0.00,meteohub,2013-01-18 23:00:00,
2013-01-18 18:05:00,33.1,5.9,30.09,WSW,248,4.0,11.0,31,0.00,,,0.00,meteohub,2013-01-18 23:05:00,
2013-01-18 18:10:00,33.3,5.9,30.06,SW,225,3.0,11.0,31,0.00,,,0.00,meteohub,2013-01-18 23:10:00,
2013-01-18 18:16:00,33.3,5.9,30.06,SSE,158,3.0,11.0,31,0.00,,,0.00,meteohub,2013-01-18 23:16:00,
2013-01-18 18:22:00,33.4,5.4,30.06,SSW,202,5.0,11.0,30,0.00,,,0.00,meteohub,2013-01-18 23:22:00,
2013-01-18 18:27:00,33.4,5.4,30.06,WNW,292,4.0,8.0,30,0.00,,,0.00,meteohub,2013-01-18 23:27:00,
2013-01-18 18:32:00,33.6,5.5,30.06,SSE,158,6.0,8.0,30,0.00,,,0.00,meteohub,2013-01-18 23:32:00,
2013-01-18 18:37:00,33.6,5.5,30.06,WSW,248,3.0,8.0,30,0.00,,,0.00,meteohub,2013-01-18 23:37:00,
2013-01-18 18:42:00,33.8,5.7,30.06,WSW,248,3.0,8.0,30,0.00,,,0.00,meteohub,2013-01-18 23:42:00,
2013-01-18 18:51:00,33.8,5.7,30.03,West,270,6.0,8.0,30,0.00,,,0.00,meteohub,2013-01-18 23:51:00,
2013-01-18 18:56:00,33.8,5.7,30.03,South,180,8.0,13.0,30,0.00,,,0.00,meteohub,2013-01-18 23:56:00,
2013-01-18 19:01:00,34.0,3.6,30.03,South,180,5.0,13.0,27,0.00,,,0.00,meteohub,2013-01-19 00:01:00,
2013-01-18 19:07:00,34.0,3.6,30.03,SSE,158,5.0,13.0,27,0.00,,,0.00,meteohub,2013-01-19 00:07:00,
2013-01-18 19:12:00,34.2,3.7,30.03,WSW,248,4.0,13.0,27,0.00,,,0.00,meteohub,2013-01-19 00:12:00,
2013-01-18 19:17:00,34.2,3.7,30.03,SW,225,3.0,13.0,27,0.00,,,0.00,meteohub,2013-01-19 00:17:00,
2013-01-18 19:22:00,34.3,3.9,30.03,NNE,22,9.0,9.0,27,0.00,,,0.00,meteohub,2013-01-19 00:22:00,
2013-01-18 19:27:00,34.3,3.9,30.03,SW,225,4.0,9.0,27,0.00,,,0.00,meteohub,2013-01-19 00:27:00,
2013-01-18 19:32:00,34.3,3.9,30.03,WSW,248,9.0,9.0,27,0.00,,,0.00,meteohub,2013-01-19 00:32:00,
2013-01-18 19:38:00,34.3,2.3,30.03,SW,225,8.0,9.0,25,0.00,,,0.00,meteohub,2013-01-19 00:38:00,
2013-01-18 19:43:00,34.3,2.3,30.03,WNW,292,6.0,9.0,25,0.00,,,0.00,meteohub,2013-01-19 00:43:00,
2013-01-18 19:49:00,34.5,2.5,30.03,South,180,4.0,9.0,25,0.00,,,0.00,meteohub,2013-01-19 00:49:00,
2013-01-18 19:58:00,34.7,2.7,30.06,WSW,248,6.0,13.0,25,0.00,,,0.00,meteohub,2013-01-19 00:58:00,
2013-01-18 20:03:00,34.7,2.7,30.06,SSE,158,3.0,13.0,25,0.00,,,0.00,meteohub,2013-01-19 01:03:00,
2013-01-18 20:09:00,34.9,2.7,30.03,SSE,158,8.0,13.0,25,0.00,,,0.00,meteohub,2013-01-19 01:09:00,
2013-01-18 20:14:00,34.9,2.7,30.03,SW,225,6.0,13.0,25,0.00,,,0.00,meteohub,2013-01-19 01:14:00,
2013-01-18 20:19:00,34.9,2.7,30.03,WSW,248,8.0,11.0,25,0.00,,,0.00,meteohub,2013-01-19 01:19:00,
2013-01-18 20:24:00,35.1,2.8,30.03,SW,225,3.0,11.0,25,0.00,,,0.00,meteohub,2013-01-19 01:24:00,
2013-01-18 20:30:00,34.9,2.7,30.03,SW,225,6.0,11.0,25,0.00,,,0.00,meteohub,2013-01-19 01:30:00,
2013-01-18 20:35:00,34.9,2.7,30.03,SW,225,5.0,11.0,25,0.00,,,0.00,meteohub,2013-01-19 01:35:00,
2013-01-18 20:40:00,34.9,2.7,30.03,WNW,292,5.0,13.0,25,0.00,,,0.00,meteohub,2013-01-19 01:40:00,
2013-01-18 20:51:00,34.9,2.7,30.03,WSW,248,10.0,13.0,25,0.00,,,0.00,meteohub,2013-01-19 01:51:00,
2013-01-18 21:10:00,34.5,2.5,30.03,WSW,248,3.0,13.0,25,0.00,,,0.00,meteohub,2013-01-19 02:10:00,
2013-01-18 21:15:00,34.5,2.5,30.03,WSW,248,6.0,13.0,25,0.00,,,0.00,meteohub,2013-01-19 02:15:00,
2013-01-18 21:21:00,34.3,2.3,30.03,SW,225,3.0,13.0,25,0.00,,,0.00,meteohub,2013-01-19 02:21:00,
2013-01-18 21:26:00,34.3,2.3,30.03,WSW,248,3.0,11.0,25,0.00,,,0.00,meteohub,2013-01-19 02:26:00,
2013-01-18 21:31:00,34.3,3.9,30.03,WNW,292,8.0,11.0,27,0.00,,,0.00,meteohub,2013-01-19 02:31:00,
2013-01-18 21:37:00,34.3,3.9,30.00,South,180,10.0,11.0,27,0.00,,,0.00,meteohub,2013-01-19 02:37:00,
2013-01-18 21:42:00,34.5,4.1,30.00,WSW,248,4.0,11.0,27,0.00,,,0.00,meteohub,2013-01-19 02:42:00,
2013-01-18 21:47:00,34.3,3.9,30.00,SW,225,5.0,11.0,27,0.00,,,0.00,meteohub,2013-01-19 02:47:00,
2013-01-18 21:52:00,34.2,3.7,30.00,WNW,292,2.0,15.0,27,0.00,,,0.00,meteohub,2013-01-19 02:52:00,
2013-01-18 21:57:00,34.2,3.7,30.00,SSW,202,5.0,15.0,27,0.00,,,0.00,meteohub,2013-01-19 02:57:00,
2013-01-18 22:02:00,34.2,3.7,30.00,WSW,248,3.0,15.0,27,0.00,,,0.00,meteohub,2013-01-19 03:02:00,
2013-01-18 22:07:00,34.2,3.7,30.00,SSE,158,3.0,15.0,27,0.00,,,0.00,meteohub,2013-01-19 03:07:00,
2013-01-18 22:13:00,34.2,6.1,30.00,WSW,248,3.0,15.0,30,0.00,,,0.00,meteohub,2013-01-19 03:13:00,
2013-01-18 22:18:00,34.3,6.3,30.00,West,270,7.0,10.0,30,0.00,,,0.00,meteohub,2013-01-19 03:18:00,
2013-01-18 22:25:00,34.5,6.4,30.00,SSE,158,4.0,10.0,30,0.00,,,0.00,meteohub,2013-01-19 03:25:00,
2013-01-18 22:31:00,34.5,6.4,30.00,SSW,202,5.0,10.0,30,0.00,,,0.00,meteohub,2013-01-19 03:31:00,
2013-01-18 22:36:00,34.5,6.4,30.00,SSW,202,6.0,10.0,30,0.00,,,0.00,meteohub,2013-01-19 03:36:00,
2013-01-18 22:42:00,34.5,6.4,29.97,SSW,202,9.0,12.0,30,0.00,,,0.00,meteohub,2013-01-19 03:42:00,
2013-01-18 22:47:00,34.7,6.4,29.97,South,180,2.0,12.0,30,0.00,,,0.00,meteohub,2013-01-19 03:47:00,
2013-01-18 22:52:00,34.7,6.4,29.97,WSW,248,3.0,12.0,30,0.00,,,0.00,meteohub,2013-01-19 03:52:00,
2013-01-18 22:57:00,34.7,6.4,29.97,WSW,248,3.0,11.0,30,0.00,,,0.00,meteohub,2013-01-19 03:57:00,
2013-01-18 23:03:00,34.9,6.6,29.97,SW,225,3.0,11.0,30,0.00,,,0.00,meteohub,2013-01-19 04:03:00,
2013-01-18 23:08:00,34.9,6.6,29.94,WSW,248,3.0,11.0,30,0.00,,,0.00,meteohub,2013-01-19 04:08:00,
2013-01-18 23:14:00,34.7,6.4,29.94,South,180,4.0,11.0,30,0.00,,,0.00,meteohub,2013-01-19 04:14:00,
2013-01-18 23:31:00,34.7,6.4,29.97,SSE,158,4.0,11.0,30,0.00,,,0.00,meteohub,2013-01-19 04:31:00,
2013-01-18 23:36:00,34.9,6.6,29.97,WNW,292,4.0,11.0,30,0.00,,,0.00,meteohub,2013-01-19 04:36:00,
2013-01-18 23:42:00,34.9,6.6,29.97,SSW,202,2.0,11.0,30,0.00,,,0.00,meteohub,2013-01-19 04:42:00,
2013-01-18 23:47:00,34.9,6.6,29.97,South,180,4.0,10.0,30,0.00,,,0.00,meteohub,2013-01-19 04:47:00,
2013-01-18 23:52:00,34.9,6.6,29.97,SW,225,5.0,10.0,30,0.00,,,0.00,meteohub,2013-01-19 04:52:00,